This demonstration page uses our WeatherBlox Daily Observations layout. Learn more.

Left ArrowRight Arrow

31.84235, -102.49876

Hourly Observations for August 21, 2015

Temp ( °F °C ) Dew Point ( °F °C ) Humidity (%) Winds ( mph kmh ) Pressure ( in mb ) Visibility ( mi km ) Precip ( " mm )
12:53 am 00:53 Clear 77 25 64 17.8 64 64 S 15 24 29.82 1010 10 16 0.00 0.00
1:53 am 01:53 Clear 76 24.4 64 17.8 67 67 S 15 24 29.82 1010 10 16 0.00 0.00
2:37 am 02:37 Partly Cloudy 76 24.4 65 18.3 69 69 WNW 17 28 29.88 1012 9 14 0.00 0.00
2:53 am 02:53 Partly Cloudy 77 25 62 16.7 60 60 W 9 15 29.87 1011 10 16 0.00 0.00
3:53 am 03:53 Clear 76 24.4 58 14.4 54 54 WSW 6 9 29.83 1010 10 16 0.00 0.00
4:53 am 04:53 Clear 77 25 58 14.4 52 52 SSW 10 17 29.77 1008 10 16 0.00 0.00
5:53 am 05:53 Clear 75 23.9 64 17.8 69 69 S 14 22 29.76 1008 10 16 0.00 0.00
6:53 am 06:53 Clear 73 22.8 64 17.8 74 74 S 16 26 29.78 1009 9 14 0.00 0.00
7:53 am 07:53 Sunny 72 22.2 64 17.8 76 76 S 10 17 29.82 1010 8 13 0.00 0.00
8:53 am 08:53 Mostly Sunny 73 22.8 64 17.8 74 74 S 13 20 29.85 1011 8 13 0.00 0.00
9:53 am 09:53 Sunny 76 24.4 64 17.8 67 67 S 13 20 29.85 1011 8 13 0.00 0.00
10:53 am 10:53 Sunny 83 28.3 61 16.1 48 48 S 14 22 29.84 1011 10 16 0.00 0.00
11:53 am 11:53 Sunny 87 30.6 59 15 39 39 SSE 10 17 29.84 1011 10 16 0.00 0.00
12:53 pm 12:53 Sunny 91 32.8 58 14.4 33 33 S 12 19 29.82 1010 10 16 0.00 0.00
1:53 pm 13:53 Sunny 93 33.9 56 13.3 29 29 VRB 7 11 29.79 1009 10 16 0.00 0.00
2:53 pm 14:53 Sunny 94 34.4 56 13.3 28 28 VRB 7 11 29.78 1009 10 16 0.00 0.00
3:53 pm 15:53 Sunny 94 34.4 57 13.9 29 29 SSE 12 19 29.76 1008 10 16 0.00 0.00
4:53 pm 16:53 Sunny 96 35.6 56 13.3 26 26 S 10 17 29.73 1007 10 16 0.00 0.00
5:53 pm 17:53 Sunny 96 35.6 57 13.9 27 27 S 16 26 29.72 1007 10 16 0.00 0.00
6:53 pm 18:53 Sunny 94 34.4 57 13.9 29 29 SSE 14 22 29.72 1006 10 16 0.00 0.00
7:53 pm 19:53 Sunny 92 33.3 57 13.9 31 31 SSE 15 24 29.71 1006 10 16 0.00 0.00
8:53 pm 20:53 Clear 89 31.7 57 13.9 34 34 S 14 22 29.76 1008 10 16 0.00 0.00
9:53 pm 21:53 Clear 87 30.6 58 14.4 37 37 S 16 26 29.75 1007 10 16 0.00 0.00
10:53 pm 22:53 Clear 85 29.4 59 15 42 42 S 14 22 29.78 1008 10 16 0.00 0.00
11:53 pm 23:53 Partly Cloudy 84 28.9 61 16.1 46 46 NE 13 20 29.84 1011 10 16 0.00 0.00

Powered by AerisWeather